CW6532 Weather Reports


Display with metric or nautical units.
time (UTC)temp
F
wind
direction
speed
MPH
gust
MPH
rain 1hr
in
rain 24hr
in
rain mn
in
humidity
%
barometer
mb
20260509074346 75 204 6.0 9.0 0.00 0.00 0.00 19 1021.8
20260509073339 76 217 6.0 9.0 0.00 0.00 0.00 19 1021.8
20260509072328 76 217 6.0 9.0 0.00 0.00 0.00 18 1021.7
20260509071357 76 193 6.0 10.0 0.00 0.00 0.00 18 1021.7
20260509070325 75 198 6.0 10.0 0.00 0.00 0.00 18 1021.7
20260509065355 76 230 8.0 10.0 0.00 0.00 0.00 19 1021.7
20260509064401 78 210 6.0 9.0 0.00 0.00 0.00 17 1021.5
20260509063333 78 202 5.0 7.0 0.00 0.00 0.00 17 1021.4
20260509062338 78 202 6.0 8.0 0.00 0.00 0.00 17 1021.4
20260509061326 78 217 5.0 8.0 0.00 0.00 0.00 17 1021.4
20260509060336 78 190 6.0 8.0 0.00 0.00 0.00 20 1021.4
20260509055345 78 204 6.0 8.0 0.00 0.00 0.00 17 1021.2
20260509054350 78 206 7.0 7.0 0.00 0.00 0.00 17 1021.3
20260509053344 80 215 5.0 6.0 0.00 0.00 0.00 16 1021.4
20260509052322 80 62 2.0 3.0 0.00 0.00 0.00 16 1021.3
20260509051347 80 63 0.0 1.0 0.00 0.00 0.00 16 1021.3
20260509050359 80 62 0.0 1.0 0.00 0.00 0.00 16 1021.2
20260509045322 80 62 0.0 0.0 0.00 0.00 0.00 16 1021.2
20260509044333 80 62 0.0 0.0 0.00 0.00 0.00 16 1021.2
20260509043326 80 63 0.0 3.0 0.00 0.00 0.00 16 1021.1
20260509042335 80 63 3.0 4.0 0.00 0.00 0.00 16 1021.1
20260509041401 81 20 2.0 3.0 0.00 0.00 0.00 16 1021.1
20260509040326 81 323 3.0 6.0 0.00 0.00 0.00 15 1020.8
20260509035335 82 296 3.0 8.0 0.00 0.00 0.00 15 1020.8
20260509034324 82 315 5.0 10.0 0.00 0.00 0.00 15 1020.7
20260509033343 83 313 5.0 10.0 0.00 0.00 0.00 15 1020.6
20260509032320 83 321 5.0 9.0 0.00 0.00 0.00 14 1020.6
20260509031325 83 282 4.0 10.0 0.00 0.00 0.00 14 1020.5
20260509030334 83 315 4.0 8.0 0.00 0.00 0.00 14 1020.3
20260509025342 83 310 4.0 9.0 0.00 0.00 0.00 14 1020.3
20260509024327 84 299 5.0 9.0 0.00 0.00 0.00 14 1020.1
20260509023320 84 316 5.0 10.0 0.00 0.00 0.00 13 1020.0
20260509022355 85 309 6.0 10.0 0.00 0.00 0.00 13 1019.9
20260509021323 85 298 6.0 12.0 0.00 0.00 0.00 12 1019.8
20260509020333 86 292 8.0 13.0 0.00 0.00 0.00 12 1019.8
20260509015342 87 304 11.0 17.0 0.00 0.00 0.00 12 1019.6
20260509014333 87 306 8.0 14.0 0.00 0.00 0.00 12 1019.5
20260509013330 88 315 8.0 16.0 0.00 0.00 0.00 11 1019.5
20260509012322 88 314 10.0 15.0 0.00 0.00 0.00 11 1019.5
20260509011329 89 338 10.0 15.0 0.00 0.00 0.00 11 1019.5
20260509010320 89 336 11.0 20.0 0.00 0.00 0.00 11 1019.4
20260509005331 90 283 9.0 15.0 0.00 0.00 0.00 11 1019.5
20260509004323 90 309 8.0 15.0 0.00 0.00 0.00 11 1019.4
20260509003344 89 290 11.0 19.0 0.00 0.00 0.00 11 1019.4
20260509002326 89 315 11.0 19.0 0.00 0.00 0.00 11 1019.4
20260509001352 90 308 14.0 20.0 0.00 0.00 0.00 11 1019.4
20260509000337 90 300 10.0 20.0 0.00 0.00 0.00 11 1019.6
20260508235321 90 317 9.0 20.0 0.00 0.00 0.00 11 1019.5
20260508234325 90 330 13.0 24.0 0.00 0.00 0.00 13 1019.5
20260508233345 90 308 13.0 20.0 0.00 0.00 0.00 11 1019.6
20260508232400 90 346 12.0 21.0 0.00 0.00 0.00 11 1019.7
20260508231322 91 250 9.0 19.0 0.00 0.00 0.00 11 1019.8
20260508230329 90 213 12.0 20.0 0.00 0.00 0.00 11 1019.9
20260508225334 90 317 12.0 20.0 0.00 0.00 0.00 12 1020.1
20260508224339 91 289 12.0 18.0 0.00 0.00 0.00 11 1020.2
20260508223336 91 326 11.0 21.0 0.00 0.00 0.00 12 1020.3
20260508222344 91 295 10.0 21.0 0.00 0.00 0.00 11 1020.4
20260508221332 90 275 7.0 20.0 0.00 0.00 0.00 12 1020.6
20260508220344 90 268 13.0 21.0 0.00 0.00 0.00 12 1020.6
20260508215329 90 295 10.0 19.0 0.00 0.00 0.00 12 1020.7
20260508214333 89 349 16.0 23.0 0.00 0.00 0.00 12 1020.8
20260508213323 89 292 10.0 24.0 0.00 0.00 0.00 12 1020.9
20260508212350 89 326 9.0 16.0 0.00 0.00 0.00 12 1021.1
20260508211351 89 322 12.0 23.0 0.00 0.00 0.00 12 1021.2
20260508210323 89 311 11.0 19.0 0.00 0.00 0.00 13 1021.3
20260508205332 89 287 12.0 17.0 0.00 0.00 0.00 13 1021.4
20260508204340 89 243 10.0 16.0 0.00 0.00 0.00 13 1021.5
20260508203330 89 228 5.0 19.0 0.00 0.00 0.00 14 1021.8
20260508202337 89 202 4.0 15.0 0.00 0.00 0.00 13 1021.8
20260508201342 87 329 6.0 15.0 0.00 0.00 0.00 14 1021.9
20260508200330 87 293 10.0 15.0 0.00 0.00 0.00 14 1022.1
20260508195332 87 311 7.0 18.0 0.00 0.00 0.00 15 1022.2
20260508194337 88 259 9.0 17.0 0.00 0.00 0.00 14 1022.3
20260508193326 87 21 2.0 11.0 0.00 0.00 0.00 15 1022.4
20260508192335 86 288 10.0 14.0 0.00 0.00 0.00 15 1022.6
20260508191359 85 317 4.0 13.0 0.00 0.00 0.00 16 1022.6
20260508190323 86 328 6.0 14.0 0.00 0.00 0.00 16 1022.9
20260508185328 85 280 6.0 14.0 0.00 0.00 0.00 16 1023.0
20260508184337 85 289 5.0 9.0 0.00 0.00 0.00 16 1023.1
20260508183330 84 233 4.0 10.0 0.00 0.00 0.00 17 1023.1
20260508182339 83 325 6.0 12.0 0.00 0.00 0.00 17 1023.2
20260508181328 82 274 1.0 9.0 0.00 0.00 0.00 18 1023.5
20260508180335 82 253 5.0 8.0 0.00 0.00 0.00 18 1023.6
20260508175338 81 320 5.0 8.0 0.00 0.00 0.00 18 1023.9
20260508174342 81 250 5.0 11.0 0.00 0.00 0.00 19 1023.8
20260508173331 79 275 4.0 10.0 0.00 0.00 0.00 19 1023.9
20260508172339 80 235 4.0 11.0 0.00 0.00 0.00 19 1023.9
20260508171327 80 25 2.0 7.0 0.00 0.00 0.00 19 1024.0
20260508170335 79 325 3.0 9.0 0.00 0.00 0.00 19 1023.9
20260508165339 78 205 4.0 12.0 0.00 0.00 0.00 20 1024.0
20260508164323 78 230 2.0 9.0 0.00 0.00 0.00 20 1024.1
20260508163339 77 271 4.0 14.0 0.00 0.00 0.00 20 1024.2
20260508162323 76 280 5.0 14.0 0.00 0.00 0.00 21 1024.3
20260508161347 76 250 1.0 9.0 0.00 0.00 0.00 22 1024.3
20260508160337 76 277 4.0 11.0 0.00 0.00 0.00 21 1024.3
20260508155322 75 251 1.0 9.0 0.00 0.00 0.00 22 1024.2
20260508154347 75 248 5.0 8.0 0.00 0.00 0.00 22 1024.2
20260508153335 74 198 2.0 8.0 0.00 0.00 0.00 23 1024.2
20260508152336 74 226 5.0 9.0 0.00 0.00 0.00 24 1024.1
20260508151339 73 192 6.0 8.0 0.00 0.00 0.00 23 1024.0
20260508150325 73 190 5.0 9.0 0.00 0.00 0.00 24 1024.2
20260508145329 73 170 4.0 9.0 0.00 0.00 0.00 24 1024.1
20260508144353 72 215 7.0 9.0 0.00 0.00 0.00 24 1024.2
20260508143326 72 214 4.0 8.0 0.00 0.00 0.00 25 1024.3
20260508142332 71 175 5.0 8.0 0.00 0.00 0.00 25 1024.3
20260508141337 70 120 2.0 9.0 0.00 0.00 0.00 27 1024.2
20260508140322 69 198 6.0 7.0 0.00 0.00 0.00 27 1024.0
20260508135347 69 189 4.0 8.0 0.00 0.00 0.00 28 1024.0
20260508134333 68 209 3.0 7.0 0.00 0.00 0.00 29 1023.8
20260508133326 67 192 6.0 7.0 0.00 0.00 0.00 30 1023.7
20260508132332 67 202 5.0 8.0 0.00 0.00 0.00 30 1023.6
20260508131336 66 215 6.0 10.0 0.00 0.00 0.00 31 1023.4
20260508130321 66 200 6.0 8.0 0.00 0.00 0.00 31 1023.3
20260508125353 66 210 4.0 6.0 0.00 0.00 0.00 31 1023.3
20260508124320 64 210 4.0 6.0 0.00 0.00 0.00 31 1023.2
20260508123335 65 217 5.0 6.0 0.00 0.00 0.00 30 1023.1
20260508122338 66 209 6.0 7.0 0.00 0.00 0.00 30 1023.1
20260508121322 67 133 3.0 4.0 0.00 0.00 0.00 28 1023.0
20260508120349 67 133 3.0 3.0 0.00 0.00 0.00 28 1022.9
20260508115332 68 133 2.0 3.0 0.00 0.00 0.00 28 1022.8
20260508114338 67 133 2.0 4.0 0.00 0.00 0.00 27 1022.8
20260508113332 67 133 3.0 5.0 0.00 0.00 0.00 28 1022.6
20260508112320 66 131 3.0 5.0 0.00 0.00 0.00 29 1022.7
20260508111329 67 135 2.0 4.0 0.00 0.00 0.00 28 1022.6
20260508110339 67 135 1.0 3.0 0.00 0.00 0.00 27 1022.6
20260508105328 67 135 3.0 4.0 0.00 0.00 0.00 28 1022.6
20260508104357 68 135 2.0 4.0 0.00 0.00 0.00 27 1022.6
20260508103329 67 135 3.0 4.0 0.00 0.00 0.00 27 1022.5
20260508102343 68 135 3.0 4.0 0.00 0.00 0.00 27 1022.6
20260508101329 67 131 2.0 3.0 0.00 0.00 0.00 27 1022.5
20260508100323 68 131 4.0 4.0 0.00 0.00 0.00 26 1022.4
20260508095332 68 128 3.0 6.0 0.00 0.00 0.00 26 1022.4
20260508094321 68 112 2.0 3.0 0.00 0.00 0.00 27 1022.5
20260508093343 69 112 4.0 9.0 0.00 0.00 0.00 27 1022.5
20260508092329 68 173 6.0 8.0 0.00 0.00 0.00 27 1022.4
20260508091337 68 182 2.0 7.0 0.00 0.00 0.00 27 1022.5
20260508090349 69 171 6.0 9.0 0.00 0.00 0.00 27 1022.4
20260508085338 69 179 6.0 9.0 0.00 0.00 0.00 27 1022.4
20260508084328 69 167 6.0 9.0 0.00 0.00 0.00 26 1022.5
20260508083323 69 186 7.0 9.0 0.00 0.00 0.00 26 1022.6
20260508082333 69 167 5.0 9.0 0.00 0.00 0.00 26 1022.7
20260508081339 70 180 6.0 9.0 0.00 0.00 0.00 26 1022.8
20260508080324 70 165 7.0 10.0 0.00 0.00 0.00 25 1022.9
20260508075328 70 217 6.0 10.0 0.00 0.00 0.00 25 1023.0